EN

Hourly Weather Brighton

Today, 19 October, Monday

Time Temperature Precipitation Wind Pressure Humidity
00:00 +10°C° 0 mm 2 mps 762 mmHg 82%
01:00 +10°C° 0 mm 3 mps 761 mmHg 83%
02:00 +10°C° 0 mm 3 mps 761 mmHg 83%
03:00 +8°C° 0 mm 4 mps 761 mmHg 84%
04:00 +8°C° 0 mm 4 mps 760 mmHg 84%
05:00 +10°C° 0 mm 4 mps 760 mmHg 83%
06:00 +9°C° 0 mm 5 mps 759 mmHg 84%
07:00 +10°C° 0 mm 5 mps 759 mmHg 81%
08:00 +10°C° 0 mm 6 mps 759 mmHg 79%
09:00 +11°C° 0 mm 7 mps 759 mmHg 76%
10:00 +12°C° 0 mm 8 mps 758 mmHg 74%
11:00 +12°C° 0 mm 8 mps 758 mmHg 71%
12:00 +12°C° 0 mm 8 mps 757 mmHg 68%
13:00 +12°C° 0 mm 8 mps 756 mmHg 68%
14:00 +12°C° 0 mm 8 mps 756 mmHg 68%
15:00 +12°C° 0 mm 8 mps 755 mmHg 68%
16:00 +12°C° 0 mm 8 mps 754 mmHg 68%
17:00 +11°C° 0 mm 8 mps 754 mmHg 68%
18:00 +11°C° 0 mm 8 mps 753 mmHg 69%
19:00 +11°C° 0 mm 8 mps 753 mmHg 68%
20:00 +11°C° 0 mm 9 mps 752 mmHg 68%
21:00 +11°C° 0 mm 9 mps 751 mmHg 68%
22:00 +11°C° 0 mm 9 mps 751 mmHg 70%
23:00 +12°C° 0 mm 9 mps 750 mmHg 71%

Tomorrow, 20 October, Tuesday

Time Temperature Precipitation Wind Pressure Humidity
00:00 +12°C° 0 mm 9 mps 750 mmHg 73%
01:00 +12°C° 0.5 mm 9 mps 749 mmHg 79%
02:00 +12°C° 0.5 mm 9 mps 749 mmHg 85%
03:00 +12°C° 0.5 mm 9 mps 748 mmHg 90%
04:00 +12°C° 0.1 mm 9 mps 748 mmHg 88%
05:00 +13°C° 0.1 mm 9 mps 748 mmHg 87%
06:00 +13°C° 0.1 mm 9 mps 748 mmHg 85%
07:00 +15°C° 0 mm 9 mps 748 mmHg 84%
08:00 +15°C° 0 mm 9 mps 748 mmHg 84%
09:00 +15°C° 0 mm 9 mps 749 mmHg 84%
10:00 +16°C° 0 mm 9 mps 749 mmHg 82%
11:00 +16°C° 0 mm 9 mps 749 mmHg 79%
12:00 +16°C° 0 mm 9 mps 749 mmHg 77%
13:00 +16°C° 0 mm 8 mps 748 mmHg 77%
14:00 +16°C° 0 mm 8 mps 748 mmHg 77%
15:00 +16°C° 0 mm 7 mps 748 mmHg 77%
16:00 +16°C° 0 mm 7 mps 748 mmHg 80%
17:00 +16°C° 0 mm 8 mps 747 mmHg 82%
18:00 +15°C° 0 mm 8 mps 747 mmHg 84%
19:00 +15°C° 0.1 mm 8 mps 747 mmHg 85%
20:00 +15°C° 0.1 mm 8 mps 747 mmHg 86%
21:00 +15°C° 0.1 mm 8 mps 747 mmHg 87%
22:00 +15°C° 1 mm 8 mps 747 mmHg 90%
23:00 +13°C° 1 mm 8 mps 746 mmHg 93%

Day after tomorrow, 21 October, Wednesday

Time Temperature Precipitation Wind Pressure Humidity
00:00 +14°C° 1 mm 7 mps 745 mmHg 95%
01:00 +13°C° 3.1 mm 8 mps 744 mmHg 95%
02:00 +13°C° 3.1 mm 9 mps 743 mmHg 94%
03:00 +13°C° 3.1 mm 11 mps 742 mmHg 93%
04:00 +13°C° 1.2 mm 11 mps 742 mmHg 92%
05:00 +14°C° 1.2 mm 12 mps 741 mmHg 92%
06:00 +14°C° 1.2 mm 13 mps 741 mmHg 91%
07:00 +14°C° 0.5 mm 13 mps 741 mmHg 91%
08:00 +14°C° 0.5 mm 12 mps 742 mmHg 91%
09:00 +14°C° 0.5 mm 12 mps 742 mmHg 91%
10:00 +14°C° 0 mm 11 mps 744 mmHg 88%
11:00 +14°C° 0 mm 10 mps 745 mmHg 85%
12:00 +15°C° 0 mm 9 mps 747 mmHg 82%
13:00 +15°C° 0 mm 8 mps 747 mmHg 83%
14:00 +15°C° 0 mm 8 mps 747 mmHg 84%
15:00 +15°C° 0 mm 7 mps 748 mmHg 85%
16:00 +15°C° 0.1 mm 8 mps 748 mmHg 85%
17:00 +15°C° 0.1 mm 8 mps 748 mmHg 85%
18:00 +15°C° 0.1 mm 8 mps 749 mmHg 84%
19:00 +15°C° 0.1 mm 8 mps 749 mmHg 86%
20:00 +13°C° 0.1 mm 8 mps 750 mmHg 88%
21:00 +13°C° 0.1 mm 8 mps 750 mmHg 89%
22:00 +14°C° 0 mm 7 mps 750 mmHg 90%
23:00 +14°C° 0 mm 7 mps 751 mmHg 91%

22 October, Thursday

Time Temperature Precipitation Wind Pressure Humidity
00:00 +12°C° 0 mm 7 mps 751 mmHg 91%
01:00 +13°C° 0 mm 6 mps 751 mmHg 91%
02:00 +13°C° 0 mm 6 mps 751 mmHg 91%
03:00 +13°C° 0 mm 6 mps 752 mmHg 90%
04:00 +13°C° 0 mm 5 mps 752 mmHg 91%
05:00 +12°C° 0 mm 4 mps 752 mmHg 91%
06:00 +12°C° 0 mm 4 mps 752 mmHg 92%
07:00 +12°C° 0 mm 3 mps 753 mmHg 89%
08:00 +13°C° 0 mm 3 mps 753 mmHg 87%
09:00 +15°C° 0 mm 2 mps 753 mmHg 84%
10:00 +15°C° 0 mm 2 mps 753 mmHg 81%
11:00 +16°C° 0 mm 2 mps 753 mmHg 78%
12:00 +17°C° 0 mm 2 mps 753 mmHg 75%
13:00 +17°C° 0 mm 2 mps 753 mmHg 78%
14:00 +16°C° 0 mm 2 mps 753 mmHg 80%
15:00 +16°C° 0 mm 2 mps 753 mmHg 82%
16:00 +15°C° 0.2 mm 2 mps 753 mmHg 86%
17:00 +15°C° 0.2 mm 2 mps 753 mmHg 89%
18:00 +14°C° 0.2 mm 2 mps 753 mmHg 92%
19:00 +13°C° 0.1 mm 3 mps 753 mmHg 92%
20:00 +13°C° 0.1 mm 3 mps 753 mmHg 93%
21:00 +12°C° 0.1 mm 4 mps 753 mmHg 93%
22:00 +12°C° 0 mm 4 mps 753 mmHg 94%
23:00 +12°C° 0 mm 4 mps 753 mmHg 94%

23 October, Friday

Time Temperature Precipitation Wind Pressure Humidity
00:00 +12°C° 0 mm 4 mps 753 mmHg 94%
01:00 +12°C° 0.1 mm 4 mps 753 mmHg 94%
02:00 +12°C° 0.1 mm 5 mps 753 mmHg 94%
03:00 +12°C° 0.1 mm 5 mps 753 mmHg 93%
04:00 +12°C° 0.2 mm 5 mps 753 mmHg 93%
05:00 +10°C° 0.2 mm 5 mps 753 mmHg 93%
06:00 +10°C° 0.2 mm 5 mps 753 mmHg 93%
07:00 +12°C° 0.1 mm 5 mps 753 mmHg 90%
08:00 +13°C° 0.1 mm 5 mps 753 mmHg 87%
09:00 +13°C° 0.1 mm 5 mps 754 mmHg 83%
10:00 +14°C° 0 mm 5 mps 754 mmHg 80%
11:00 +14°C° 0 mm 5 mps 754 mmHg 76%
12:00 +15°C° 0 mm 5 mps 754 mmHg 73%
13:00 +14°C° 0 mm 6 mps 754 mmHg 74%
14:00 +14°C° 0 mm 6 mps 755 mmHg 75%
15:00 +14°C° 0 mm 6 mps 755 mmHg 75%
16:00 +13°C° 0 mm 6 mps 755 mmHg 80%
17:00 +11°C° 0 mm 6 mps 755 mmHg 84%
18:00 +10°C° 0 mm 5 mps 756 mmHg 88%
19:00 +9°C° 0 mm 5 mps 756 mmHg 88%
20:00 +10°C° 0 mm 4 mps 756 mmHg 89%
21:00 +10°C° 0 mm 4 mps 757 mmHg 89%
22:00 +8°C° 0 mm 4 mps 757 mmHg 89%
23:00 +8°C° 0 mm 4 mps 757 mmHg 89%

24 October, Saturday

Time Temperature Precipitation Wind Pressure Humidity
00:00 +8°C° 0 mm 4 mps 757 mmHg 89%
01:00 +9°C° 0 mm 5 mps 757 mmHg 89%
02:00 +9°C° 0 mm 5 mps 757 mmHg 89%
03:00 +9°C° 0 mm 5 mps 757 mmHg 89%
04:00 +10°C° 0 mm 6 mps 757 mmHg 87%
05:00 +10°C° 0 mm 6 mps 757 mmHg 85%
06:00 +11°C° 0 mm 7 mps 757 mmHg 83%
07:00 +11°C° 0 mm 7 mps 757 mmHg 82%
08:00 +11°C° 0 mm 7 mps 757 mmHg 82%
09:00 +12°C° 0 mm 8 mps 757 mmHg 81%
10:00 +12°C° 0 mm 8 mps 757 mmHg 82%
11:00 +12°C° 0 mm 9 mps 757 mmHg 83%
12:00 +12°C° 0 mm 9 mps 757 mmHg 84%
13:00 +13°C° 0 mm 9 mps 756 mmHg 83%
14:00 +13°C° 0 mm 9 mps 756 mmHg 83%
15:00 +13°C° 0 mm 9 mps 756 mmHg 83%
16:00 +13°C° 0 mm 9 mps 756 mmHg 82%
17:00 +13°C° 0 mm 9 mps 755 mmHg 81%
18:00 +13°C° 0 mm 9 mps 755 mmHg 80%
19:00 +13°C° 0 mm 9 mps 755 mmHg 81%
20:00 +13°C° 0 mm 9 mps 755 mmHg 82%
21:00 +13°C° 0 mm 10 mps 755 mmHg 82%
22:00 +12°C° 0 mm 10 mps 754 mmHg 84%
23:00 +12°C° 0 mm 10 mps 754 mmHg 85%

25 October, Sunday

Time Temperature Precipitation Wind Pressure Humidity
00:00 +12°C° 0 mm 10 mps 753 mmHg 86%
01:00 +12°C° 0 mm 10 mps 753 mmHg 85%
02:00 +12°C° 0 mm 10 mps 752 mmHg 84%
03:00 +12°C° 0 mm 10 mps 752 mmHg 83%
04:00 +12°C° 0 mm 10 mps 751 mmHg 82%
05:00 +12°C° 0 mm 10 mps 751 mmHg 82%
06:00 +12°C° 0 mm 10 mps 751 mmHg 81%
07:00 +13°C° 0 mm 10 mps 751 mmHg 82%
08:00 +13°C° 0 mm 10 mps 750 mmHg 82%
09:00 +13°C° 0 mm 10 mps 750 mmHg 82%
10:00 +13°C° 0 mm 10 mps 750 mmHg 80%
11:00 +13°C° 0 mm 10 mps 749 mmHg 77%
12:00 +13°C° 0 mm 10 mps 749 mmHg 75%
13:00 +13°C° 0 mm 10 mps 748 mmHg 74%
14:00 +14°C° 0 mm 10 mps 748 mmHg 74%
15:00 +14°C° 0 mm 10 mps 747 mmHg 73%
16:00 +13°C° 0.8 mm 9 mps 747 mmHg 77%
17:00 +12°C° 0.8 mm 8 mps 747 mmHg 82%
18:00 +11°C° 0.8 mm 6 mps 747 mmHg 86%
19:00 +11°C° 1 mm 7 mps 748 mmHg 88%
20:00 +10°C° 1 mm 7 mps 748 mmHg 90%
21:00 +9°C° 1 mm 7 mps 748 mmHg 92%
22:00 +8°C° 0.1 mm 7 mps 749 mmHg 90%
23:00 +8°C° 0.1 mm 7 mps 749 mmHg 88%
Show more